Torna al catalogo

IRIDIUM 33 DEB

AttivoPO
NORAD 46965·DEBRIS·🇺🇸 United States

Lanciato Sep 14, 1997 da Baikonur Cosmodrome

Loading…

Prossimi Passaggi (prossime 24 ore)

TLE

AggiornatoSource: Space-Track

Epoca: Sep 14, 2026, 03:38 UTC

1 46965U 97051ABX 26257.15166341  .00002296  00000-0  45259-3 0  9998
2 46965  86.3352 218.3388 0021493 104.6378 268.6972 14.61963871662909

Traccia IRIDIUM 33 DEB in tempo reale con AllMySat

Download on the App Store